Location: Chalets de Clapeyto
(44.7928°N, 6.7006°E)
Time: 12:25:43
(UTC+00:00)

Daily predictions for brighter satellites

Satellite Brightness Start Highest point End
(mag) Time Altitude Azimuth Time Altitude Azimuth Time Altitude Azimuth
Meteor 1-18 Rocket 4.4 18:06:03 10° N 18:11:58 66° ENE 18:17:45 10° SSE
Cosmos 2333 Rocket 3.6 18:07:05 10° SW 18:12:33 43° WNW 18:18:04 10° NNE
SeaSat 1 3.2 18:10:09 10° NNE 18:15:00 59° WNW 18:19:48 10° SW
Iridium 4 Rocket 3.3 18:11:12 10° N 18:15:11 43° E 18:19:10 10° SSE
Cosmos 1151 Rocket 3.1 18:11:43 10° N 18:16:00 86° W 18:20:14 10° S
Meteor 1-5 Rocket 4.5 18:15:48 10° SSW 18:21:28 81° W 18:27:21 10° N
Cosmos 1937 Rocket 4.4 18:17:52 10° NNW 18:23:01 55° WSW 18:28:11 10° S
NOSS 0 Rocket 4.3 18:20:03 10° S 18:25:50 42° ESE 18:31:41 10° NE
Cosmos 1943 Rocket 3.2 18:23:13 10° N 18:27:58 29° NE 18:32:34 11° ESE
USA 276 2.8 18:25:16 10° NW 18:28:00 36° NNE 18:30:24 11° E
ACS3 Solar Sail 3.0 18:25:03 10° ESE 18:30:04 25° ENE 18:35:04 10° N
Cosmos 2322 3.7 18:25:26 10° SSW 18:31:05 89° ESE 18:36:47 10° NNE
Cosmos 1400 Rocket 2.6 18:28:24 10° N 18:32:13 69° ENE 18:35:58 10° SSE
Cosmos 2233 Rocket 4.1 18:26:05 10° S 18:32:13 82° W 18:38:26 10° N
BlueWalker 3 1.9 18:30:43 10° WNW 18:34:28 83° SW 18:37:58 12° SE
Cosmos 1066 Rocket 4.3 18:28:57 10° N 18:34:50 77° ENE 18:40:38 10° SSE
Cosmos 1726 1.9 18:32:15 10° SSW 18:34:59 62° W 18:37:46 10° N
Resurs 1-3 3.5 18:31:15 10° SSE 18:35:34 77° ENE 18:39:54 10° N
SAR-Lupe-2 3.7 18:40:01 10° S 18:43:34 76° WSW 18:47:10 10° NNW
Cosmos 1315 Rocket 4.2 18:44:55 10° NNE 18:47:55 20° ENE 18:49:14 17° E
Cosmos 1464 Rocket 4.4 18:42:23 10° SSE 18:48:17 43° E 18:54:15 10° NNE
Meteor PRIRODA 3.2 18:45:04 10° SSE 18:48:21 86° E 18:51:40 10° NNW
Cosmos 1125 Rocket 4.1 18:47:01 10° N 18:51:52 38° ENE 18:55:24 17° ESE
Cosmos 1536 3.1 18:49:32 10° SSE 18:53:07 40° E 18:56:44 10° NNE
Cosmos 1842 3.0 18:49:35 10° N 18:53:12 64° E 18:56:47 10° SSE
Okean 3 Rocket 3.8 18:49:15 10° SSE 18:53:33 48° E 18:57:49 10° NNE
USA 59 Rocket 0.2 18:50:52 10° NW 18:54:51 84° SW 19:00:05 11° SE
COSMOS 2428 3.0 18:49:13 10° SSW 18:54:55 75° WNW 19:00:41 10° NNE
Cosmos 1707 2.5 18:53:30 10° N 18:57:01 57° E 19:00:08 12° SSE
Cosmos 1515 Rocket 3.8 18:53:06 10° N 18:57:17 45° ENE 19:00:44 14° SSE
Okean O Rocket 2.5 18:57:42 20° ESE 18:59:58 31° ENE 19:03:53 10° N
CZ-4B DEB 4.4 19:02:15 10° S 19:07:45 76° WSW 19:13:17 10° NNW
USA 306 4.0 19:05:07 10° W 19:07:56 30° NNW 19:11:11 10° NE
Cosmos 2278 Rocket 2.1 19:02:14 10° NNW 19:07:56 79° ENE 19:12:39 15° SSE
CZ-4 R/B 1.3 19:05:04 10° S 19:08:51 77° WSW 19:12:45 10° NNW
Meteor 2-9 Rocket 4.4 19:04:31 10° SSE 19:09:30 42° E 19:14:34 10° NNE
Cosmos 2034 Rocket 4.3 19:04:46 10° SSE 19:10:33 43° E 19:16:19 10° NNE
Meteor 1-13 Rocket 4.4 19:04:52 10° N 19:10:37 54° ENE 19:14:59 17° SSE
CZ-4B R/B 3.1 19:06:53 10° SSE 19:12:15 70° ENE 19:17:36 10° N
Cosmos 1500 Rocket 4.2 19:10:44 25° SE 19:12:23 33° E 19:16:18 10° NNE
Cosmos 1766 Rocket 4.3 19:09:00 10° SSW 19:13:15 54° WNW 19:17:34 10° N
Cosmos 1072 Rocket 4.5 19:07:39 10° S 19:14:02 74° E 19:20:25 10° NNE
Resurs 01 Rocket 1.5 19:10:19 12° SSE 19:14:22 79° ENE 19:18:49 10° N
NOSS 3-3 (C) 4.0 19:10:09 10° S 19:15:04 41° ESE 19:20:41 10° NE
NOSS 2-1 (C) 4.2 19:11:16 10° NW 19:15:11 55° SW 19:19:46 14° SSE
Meteor 2-10 4.2 19:10:49 10° S 19:16:18 62° E 19:21:56 10° NNE
ADEOS 4.5 19:11:58 10° S 19:17:01 49° W 19:22:05 10° NNW
Meteor 2-17 Rocket 4.4 19:11:11 10° N 19:17:17 87° W 19:23:21 10° S
Helios 1A 3.6 19:13:30 10° N 19:17:30 56° WNW 19:21:27 10° SSW
GEOS 3 Rocket 3.6 19:13:39 19° SE 19:17:31 84° SW 19:22:44 10° NW
USA 290 2.8 19:14:58 10° NNW 19:18:13 56° WSW 19:20:16 20° S
Cosmos 1743 Rocket 4.4 19:19:19 29° E 19:19:19 29° E 19:22:51 10° NNE
USA 186 1.8 19:17:45 21° S 19:19:43 78° WSW 19:22:58 10° NNW
PAYLOAD B 4.4 19:15:17 10° S 19:20:52 77° WSW 19:26:31 10° NNW
MOS 1-B 4.3 19:17:39 17° SSE 19:22:07 67° ENE 19:27:52 10° N
SPOT 5 3.6 19:22:14 28° E 19:22:59 30° ENE 19:26:53 10° N
Okean-O 3.4 19:23:05 30° E 19:23:45 32° ENE 19:27:40 10° N
Cosmos 2208 Rocket 4.1 19:20:21 10° S 19:25:25 53° ESE 19:30:36 10° NNE
Cosmos 1408 Rocket 3.5 19:22:58 10° S 19:27:16 63° E 19:31:38 10° NNE
CZ-4B R/B 3.8 19:25:17 10° S 19:28:58 46° W 19:32:52 10° NNW
NOSS 3-3 (A) 3.7 19:24:01 10° SSW 19:29:09 56° ESE 19:35:07 10° NE
ISS -3.5 19:26:13 10° WSW 19:29:33 67° NNW 19:30:43 36° NE
Cosmos 2237 Rocket 2.1 19:28:17 10° SSW 19:33:54 88° WNW 19:39:33 10° NNE
CSL-04 Rocket 3.6 19:31:45 16° SSE 19:36:03 83° WSW 19:41:24 10° NNW
Aureole 3 Rocket 3.9 19:29:21 10° S 19:36:20 60° E 19:41:19 10° NNE
Cosmos 1607 4.4 19:31:03 10° S 19:36:54 38° ESE 19:42:46 10° NE
Meteor 1-11 Rocket 3.7 19:39:44 10° SSW 19:45:22 83° W 19:50:57 10° N
Lacrosse 4 Rocket 4.3 19:44:06 10° W 19:45:51 12° WSW 19:47:37 10° SW
MOS 1 Rocket 3.9 19:45:39 40° E 19:46:12 42° ENE 19:51:09 10° N
IKONOS-2 4.4 19:43:12 10° NNE 19:47:23 85° W 19:50:24 18° SSW
Cosmos 158 Rocket 3.9 19:45:55 10° SSW 19:50:48 79° WNW 19:55:41 10° NNE
ATLAS CENTAUR R/B 1.5 19:47:42 10° SW 19:51:12 59° NW 19:54:53 10° NNE
Cosmos 1805 Rocket 3.3 19:52:47 63° SSE 19:53:25 78° E 19:57:45 10° N
Cosmos 1428 Rocket 4.3 19:53:15 10° N 19:59:24 90° S 20:02:19 33° S
USA 276 4.3 19:59:26 10° WNW 20:00:38 21° W 20:00:38 21° W
SL-24 R/B 4.2 20:01:56 66° ESE 20:02:19 70° E 20:07:07 10° N
Cosmos 2369 Rocket 3.1 19:59:47 10° N 20:04:55 33° NE 20:05:11 32° ENE
Sich 1 3.3 20:07:33 47° SW 20:08:36 66° W 20:12:55 10° N
Meteor 1-21 4.2 20:03:57 10° N 20:09:43 68° ENE 20:10:23 62° ESE
Cosmos 1943 Rocket 2.9 20:06:38 10° NW 20:11:55 48° WSW 20:14:05 32° SSW
BlueWalker 3 4.5 20:10:13 10° W 20:11:58 13° SW 20:12:13 13° SW
Terra 2.5 20:13:52 41° NE 20:13:52 41° NE 20:17:27 10° N
ACS3 Solar Sail 2.2 20:09:36 24° S 20:13:34 64° W 20:19:57 10° NNW
ERS-1 Rocket 3.1 20:14:03 56° NE 20:14:03 56° NE 20:18:37 10° N
Cosmos 2298 Rocket 4.0 20:10:29 10° NNW 20:15:48 81° WSW 20:16:27 68° S
Cosmos 1975 4.4 20:18:58 26° N 20:18:58 26° N 20:20:47 10° N
Cosmos 2150 Rocket 3.9 20:12:20 10° NNW 20:17:29 78° WSW 20:17:56 72° SSW
USA 32 4.2 20:12:47 10° N 20:18:00 68° W 20:19:24 47° SSW
Cosmos 1805 4.4 20:21:37 38° NW 20:21:37 38° NW 20:24:29 10° N
Ariane Rocket 3.9 20:24:21 37° NE 20:24:21 37° NE 20:28:01 10° N
Cosmos 1315 Rocket 4.2 20:20:28 10° NNW 20:24:03 33° W 20:24:27 32° WSW
Cosmos 2026 Rocket 4.0 20:18:01 10° N 20:24:15 79° W 20:25:51 52° S
Cosmos 1092 Rocket 4.0 20:18:23 10° N 20:24:45 81° W 20:26:28 51° S
IRS-1A Rocket 4.1 20:26:28 77° SE 20:26:52 84° ENE 20:32:36 10° NNW
Meteor 2-12 Rocket 4.3 20:21:52 10° N 20:28:04 90° NNE 20:28:56 68° S
SL-16 R/B 2.3 20:35:16 63° NNE 20:35:16 63° NNE 20:40:00 10° NNE
Okean O Rocket 3.4 20:35:02 24° WSW 20:36:12 27° W 20:40:00 10° NW
Cosmos 1634 Rocket 4.0 20:36:31 53° SSW 20:38:06 79° W 20:44:29 10° N
Cosmos 1656 Rocket 3.8 20:36:14 10° NNW 20:41:19 70° N 20:41:19 70° N
USA 59 Rocket 3.1 20:42:45 10° W 20:44:16 11° WSW 20:45:56 10° SW
IRS-1C Rocket 4.3 20:45:02 69° NW 20:45:02 69° NW 20:49:49 10° NNW
Cosmos 2228 Rocket 4.5 20:52:22 10° NNW 20:55:20 38° NW 20:55:20 38° NW
SPOT 3 Rocket 4.4 21:00:55 45° N 21:00:55 45° N 21:04:27 10° NNW
Okean-O 4.5 21:00:31 26° W 21:00:31 26° W 21:03:50 10° NW
SPOT 5 4.4 21:01:22 29° W 21:01:22 29° W 21:04:55 10° NW
USA 267 3.8 21:08:22 47° NE 21:08:55 48° NNE 21:15:08 10° NW
Cosmos 2279 Rocket 4.4 21:20:00 57° WNW 21:20:00 57° WNW 21:25:53 10° N
NOSS 3-4 (A) 4.3 21:39:00 10° NW 21:44:37 54° W 21:44:37 54° W
NOSS 3-4 (C) 4.3 21:39:06 10° NW 21:44:43 54° W 21:44:43 54° W
Cosmos 2369 Rocket 3.7 21:43:40 10° NW 21:46:58 31° WNW 21:46:58 31° WNW
Terra 4.3 21:52:34 16° WNW 21:52:34 16° WNW 21:54:14 10° NW
ATLAS 2AS CENTAUR R/B 4.1 22:31:16 10° NNW 22:36:30 30° NNE 22:36:30 30° NNE
Cosmos 2344 4.3 23:20:57 10° NW 23:27:14 59° NW 23:27:14 59° NW
